Location: McLaughlin
(0.0000°N, 0.0000°E)
Time: 18:04:23
(UTC+00:00)

Hubble Space Telescope - Pass Details

Date: 23 June 2019
Orbit: 536 x 540 km, 28.5° (Epoch: 14 July)

Event Time Altitude Azimuth Distance (km) Brightness Sun altitude
Exits shadow 04:35:08 - 324° (NW) 2,596 4.1 -19.9°
Reaches altitude 10° 04:37:39 10° 340° (NNW) 1,772 3.5 -19.3°
Maximum altitude 04:40:43 20° 29° (NNE) 1,251 3.3 -18.6°
Drops below altitude 10° 04:43:48 10° 78° (ENE) 1,775 4.6 -17.9°
Sets 04:46:31 0° 95° (E) 2,667 5.4 -17.3°
